Time,TemperatureF,DewpointF,PressureIn,WindDirection,WindDirectionDegrees,WindSpeedMPH,WindSpeedGustMPH,Humidity,HourlyPrecipIn,Conditions,Clouds,dailyrainin,SoftwareType,DateUTC
2013-05-24 00:02:00,59.0,1.0,-100.00,SE,140,11.0,18.0,7,-99.99,,,-99.99,,2013-05-24 06:02:00,
2013-05-24 00:12:00,59.0,0.0,-100.00,SE,138,9.0,16.0,7,-99.99,,,-99.99,,2013-05-24 06:12:00,
2013-05-24 00:21:00,59.0,0.0,-100.00,SE,138,9.0,16.0,7,-99.99,,,-99.99,,2013-05-24 06:21:00,
2013-05-24 00:32:00,59.0,0.0,-100.00,SE,135,10.0,17.0,7,-99.99,,,-99.99,,2013-05-24 06:32:00,
2013-05-24 00:42:00,59.0,0.0,-100.00,SE,142,9.0,16.0,7,-99.99,,,-99.99,,2013-05-24 06:42:00,
2013-05-24 00:52:00,59.0,0.0,-100.00,SE,142,9.0,16.0,7,-99.99,,,-99.99,,2013-05-24 06:52:00,
2013-05-24 01:01:00,58.0,-1.0,-100.00,SE,126,6.0,11.0,7,-99.99,,,-99.99,,2013-05-24 07:01:00,
2013-05-24 01:11:00,58.0,2.0,-100.00,SE,130,7.0,12.0,8,-99.99,,,-99.99,,2013-05-24 07:11:00,
2013-05-24 01:22:00,58.0,2.0,-100.00,SE,130,7.0,12.0,8,-99.99,,,-99.99,,2013-05-24 07:22:00,
2013-05-24 01:32:00,58.0,3.0,-100.00,SE,138,6.0,12.0,9,-99.99,,,-99.99,,2013-05-24 07:32:00,
2013-05-24 01:42:00,58.0,1.0,-100.00,SE,134,6.0,10.0,8,-99.99,,,-99.99,,2013-05-24 07:42:00,
2013-05-24 01:52:00,58.0,1.0,-100.00,SE,134,6.0,10.0,8,-99.99,,,-99.99,,2013-05-24 07:52:00,
2013-05-24 02:02:00,57.0,5.0,-100.00,SSE,150,4.0,8.0,9,-99.99,,,-99.99,,2013-05-24 08:02:00,
2013-05-24 02:11:00,58.0,5.0,-100.00,SSE,153,3.0,6.0,9,-99.99,,,-99.99,,2013-05-24 08:11:00,
2013-05-24 02:22:00,58.0,5.0,-100.00,SSE,153,3.0,6.0,9,-99.99,,,-99.99,,2013-05-24 08:22:00,
2013-05-24 02:32:00,57.0,5.0,-100.00,SE,140,2.0,6.0,9,-99.99,,,-99.99,,2013-05-24 08:32:00,
2013-05-24 02:42:00,58.0,5.0,-100.00,SE,146,2.0,12.0,9,-99.99,,,-99.99,,2013-05-24 08:42:00,
2013-05-24 02:52:00,58.0,5.0,-100.00,SE,146,2.0,12.0,9,-99.99,,,-99.99,,2013-05-24 08:52:00,
2013-05-24 03:01:00,59.0,0.0,-100.00,South,171,8.0,14.0,7,-99.99,,,-99.99,,2013-05-24 09:01:00,
2013-05-24 03:32:00,57.0,-28.0,-100.00,SSW,203,4.0,8.0,2,-99.99,,,-99.99,,2013-05-24 09:32:00,
2013-05-24 03:42:00,55.0,-29.0,-100.00,NW,304,2.0,5.0,7,-99.99,,,-99.99,,2013-05-24 09:42:00,
2013-05-24 03:52:00,55.0,-29.0,-100.00,NW,304,2.0,5.0,7,-99.99,,,-99.99,,2013-05-24 09:52:00,
2013-05-24 05:12:00,51.0,43.0,-100.00,NW,318,4.0,6.0,77,-99.99,,,-99.99,,2013-05-24 11:12:00,
2013-05-24 05:22:00,51.0,43.0,-100.00,NW,318,4.0,6.0,77,-99.99,,,-99.99,,2013-05-24 11:22:00,
2013-05-24 05:32:00,50.0,43.0,-100.00,NW,324,4.0,6.0,79,-99.99,,,-99.99,,2013-05-24 11:32:00,
2013-05-24 05:42:00,50.0,43.0,-100.00,West,281,3.0,6.0,81,-99.99,,,-99.99,,2013-05-24 11:42:00,
2013-05-24 05:51:00,50.0,43.0,-100.00,West,281,3.0,6.0,81,-99.99,,,-99.99,,2013-05-24 11:51:00,
2013-05-24 06:02:00,49.0,44.0,-100.00,West,271,2.0,5.0,83,-99.99,,,-99.99,,2013-05-24 12:02:00,
2013-05-24 06:11:00,49.0,43.0,-100.00,SW,217,2.0,5.0,82,-99.99,,,-99.99,,2013-05-24 12:11:00,
2013-05-24 06:21:00,49.0,43.0,-100.00,SW,217,2.0,5.0,82,-99.99,,,-99.99,,2013-05-24 12:21:00,
2013-05-24 06:32:00,49.0,44.0,-100.00,SE,144,0.0,3.0,82,-99.99,,,-99.99,,2013-05-24 12:32:00,
2013-05-24 06:42:00,49.0,44.0,-100.00,South,175,1.0,3.0,84,-99.99,,,-99.99,,2013-05-24 12:42:00,
2013-05-24 06:52:00,49.0,44.0,-100.00,South,175,1.0,3.0,84,-99.99,,,-99.99,,2013-05-24 12:52:00,
2013-05-24 07:02:00,51.0,45.0,-100.00,South,175,0.0,2.0,82,-99.99,,,-99.99,,2013-05-24 13:02:00,
2013-05-24 07:11:00,52.0,45.0,-100.00,NW,305,3.0,6.0,78,-99.99,,,-99.99,,2013-05-24 13:11:00,
2013-05-24 07:21:00,52.0,45.0,-100.00,NW,305,3.0,6.0,78,-99.99,,,-99.99,,2013-05-24 13:21:00,
2013-05-24 07:32:00,52.0,45.0,-100.00,WNW,303,3.0,7.0,77,-99.99,,,-99.99,,2013-05-24 13:32:00,
2013-05-24 07:42:00,53.0,38.0,-100.00,WNW,295,4.0,6.0,56,-99.99,,,-99.99,,2013-05-24 13:42:00,
2013-05-24 07:52:00,53.0,38.0,-100.00,WNW,295,4.0,6.0,56,-99.99,,,-99.99,,2013-05-24 13:52:00,
2013-05-24 08:01:00,54.0,45.0,-100.00,NW,305,3.0,5.0,72,-99.99,,,-99.99,,2013-05-24 14:01:00,
2013-05-24 08:11:00,56.0,47.0,-100.00,West,272,2.0,4.0,72,-99.99,,,-99.99,,2013-05-24 14:11:00,
2013-05-24 08:21:00,56.0,47.0,-100.00,West,272,2.0,4.0,72,-99.99,,,-99.99,,2013-05-24 14:21:00,
2013-05-24 08:42:00,58.0,34.0,-100.00,WNW,301,1.0,4.0,41,-99.99,,,-99.99,,2013-05-24 14:42:00,
2013-05-24 08:52:00,58.0,34.0,-100.00,WNW,301,1.0,4.0,41,-99.99,,,-99.99,,2013-05-24 14:52:00,
2013-05-24 09:02:00,59.0,44.0,-100.00,WNW,287,2.0,4.0,57,-99.99,,,-99.99,,2013-05-24 15:02:00,
2013-05-24 09:11:00,62.0,18.0,-100.00,WNW,289,1.0,3.0,15,-99.99,,,-99.99,,2013-05-24 15:11:00,
2013-05-24 09:21:00,62.0,18.0,-100.00,WNW,289,1.0,3.0,15,-99.99,,,-99.99,,2013-05-24 15:21:00,
2013-05-24 09:32:00,65.0,45.0,-100.00,ENE,64,0.0,2.0,48,-99.99,,,-99.99,,2013-05-24 15:32:00,
2013-05-24 09:43:00,69.0,38.0,-100.00,SSW,202,2.0,7.0,33,-99.99,,,-99.99,,2013-05-24 15:43:00,
2013-05-24 09:52:00,69.0,38.0,-100.00,SSW,202,2.0,7.0,33,-99.99,,,-99.99,,2013-05-24 15:52:00,
2013-05-24 10:03:00,71.0,40.0,-100.00,SSW,208,7.0,10.0,33,-99.99,,,-99.99,,2013-05-24 16:03:00,
2013-05-24 10:12:00,71.0,34.0,-100.00,SW,215,8.0,12.0,25,-99.99,,,-99.99,,2013-05-24 16:12:00,
2013-05-24 10:22:00,71.0,34.0,-100.00,SW,215,8.0,12.0,25,-99.99,,,-99.99,,2013-05-24 16:22:00,
2013-05-24 10:32:00,73.0,33.0,-100.00,SSW,201,8.0,12.0,23,-99.99,,,-99.99,,2013-05-24 16:32:00,
2013-05-24 10:42:00,73.0,33.0,-100.00,SSW,201,8.0,12.0,23,-99.99,,,-99.99,,2013-05-24 16:42:00,
2013-05-24 10:52:00,74.0,30.0,-100.00,SSW,195,10.0,14.0,19,-99.99,,,-99.99,,2013-05-24 16:52:00,
2013-05-24 11:02:00,75.0,30.0,-100.00,South,172,9.0,14.0,18,-99.99,,,-99.99,,2013-05-24 17:02:00,
2013-05-24 11:12:00,77.0,27.0,-100.00,SSE,163,8.0,14.0,14,-99.99,,,-99.99,,2013-05-24 17:12:00,
2013-05-24 11:22:00,77.0,27.0,-100.00,SSE,163,8.0,14.0,14,-99.99,,,-99.99,,2013-05-24 17:22:00,
2013-05-24 11:32:00,78.0,24.0,-100.00,South,170,10.0,14.0,12,-99.99,,,-99.99,,2013-05-24 17:32:00,
2013-05-24 11:42:00,78.0,25.0,-100.00,South,186,9.0,16.0,12,-99.99,,,-99.99,,2013-05-24 17:42:00,
2013-05-24 11:52:00,78.0,25.0,-100.00,South,186,9.0,16.0,12,-99.99,,,-99.99,,2013-05-24 17:52:00,
2013-05-24 12:01:00,79.0,25.0,-100.00,South,172,9.0,15.0,13,-99.99,,,-99.99,,2013-05-24 18:01:00,
2013-05-24 12:12:00,79.0,26.0,-100.00,South,171,9.0,15.0,13,-99.99,,,-99.99,,2013-05-24 18:12:00,
2013-05-24 12:21:00,79.0,26.0,-100.00,South,171,9.0,15.0,13,-99.99,,,-99.99,,2013-05-24 18:21:00,
2013-05-24 12:32:00,80.0,25.0,-100.00,South,180,8.0,17.0,12,-99.99,,,-99.99,,2013-05-24 18:32:00,
2013-05-24 12:42:00,80.0,24.0,-100.00,SW,217,6.0,13.0,11,-99.99,,,-99.99,,2013-05-24 18:42:00,
2013-05-24 12:51:00,80.0,24.0,-100.00,SW,217,6.0,13.0,11,-99.99,,,-99.99,,2013-05-24 18:51:00,
2013-05-24 13:01:00,82.0,22.0,-100.00,South,179,9.0,15.0,9,-99.99,,,-99.99,,2013-05-24 19:01:00,
2013-05-24 13:11:00,82.0,21.0,-100.00,South,178,8.0,16.0,9,-99.99,,,-99.99,,2013-05-24 19:11:00,
2013-05-24 13:21:00,82.0,21.0,-100.00,South,178,8.0,16.0,9,-99.99,,,-99.99,,2013-05-24 19:21:00,
2013-05-24 13:32:00,83.0,22.0,-100.00,South,180,9.0,17.0,9,-99.99,,,-99.99,,2013-05-24 19:32:00,
2013-05-24 13:41:00,83.0,21.0,-100.00,South,184,9.0,15.0,9,-99.99,,,-99.99,,2013-05-24 19:41:00,
2013-05-24 13:52:00,83.0,21.0,-100.00,South,184,9.0,15.0,9,-99.99,,,-99.99,,2013-05-24 19:52:00,
2013-05-24 14:02:00,84.0,21.0,-100.00,SW,218,11.0,17.0,9,-99.99,,,-99.99,,2013-05-24 20:02:00,
2013-05-24 14:11:00,84.0,22.0,-100.00,South,183,9.0,17.0,9,-99.99,,,-99.99,,2013-05-24 20:11:00,
2013-05-24 14:21:00,84.0,22.0,-100.00,South,183,9.0,17.0,9,-99.99,,,-99.99,,2013-05-24 20:21:00,
2013-05-24 14:32:00,85.0,23.0,-100.00,SSW,201,8.0,19.0,9,-99.99,,,-99.99,,2013-05-24 20:32:00,
2013-05-24 14:41:00,85.0,22.0,-100.00,SE,144,6.0,14.0,8,-99.99,,,-99.99,,2013-05-24 20:41:00,
2013-05-24 14:51:00,85.0,22.0,-100.00,SE,144,6.0,14.0,8,-99.99,,,-99.99,,2013-05-24 20:51:00,
2013-05-24 15:01:00,85.0,19.0,-100.00,SSE,153,8.0,15.0,7,-99.99,,,-99.99,,2013-05-24 21:01:00,
2013-05-24 15:11:00,85.0,27.0,-100.00,SSW,193,6.0,18.0,11,-99.99,,,-99.99,,2013-05-24 21:11:00,
2013-05-24 15:21:00,85.0,27.0,-100.00,SSW,193,6.0,18.0,11,-99.99,,,-99.99,,2013-05-24 21:21:00,
2013-05-24 15:32:00,84.0,27.0,-100.00,WSW,254,11.0,17.0,12,-99.99,,,-99.99,,2013-05-24 21:32:00,
2013-05-24 15:42:00,85.0,28.0,-100.00,West,280,9.0,18.0,9,-99.99,,,-99.99,,2013-05-24 21:42:00,
2013-05-24 15:52:00,85.0,28.0,-100.00,West,280,9.0,18.0,9,-99.99,,,-99.99,,2013-05-24 21:52:00,
2013-05-24 16:02:00,85.0,24.0,-100.00,NW,325,6.0,16.0,9,-99.99,,,-99.99,,2013-05-24 22:02:00,
2013-05-24 16:12:00,85.0,26.0,-100.00,North,353,4.0,13.0,10,-99.99,,,-99.99,,2013-05-24 22:12:00,
2013-05-24 16:22:00,85.0,26.0,-100.00,North,353,4.0,13.0,10,-99.99,,,-99.99,,2013-05-24 22:22:00,
2013-05-24 16:33:00,85.0,29.0,-100.00,North,354,5.0,13.0,12,-99.99,,,-99.99,,2013-05-24 22:33:00,
2013-05-24 16:42:00,83.0,28.0,-100.00,NNE,25,9.0,15.0,14,-99.99,,,-99.99,,2013-05-24 22:42:00,
2013-05-24 16:52:00,83.0,28.0,-100.00,NNE,25,9.0,15.0,14,-99.99,,,-99.99,,2013-05-24 22:52:00,
2013-05-24 17:02:00,83.0,31.0,-100.00,NE,34,9.0,14.0,14,-99.99,,,-99.99,,2013-05-24 23:02:00,
2013-05-24 17:11:00,83.0,31.0,-100.00,NE,34,8.0,15.0,14,-99.99,,,-99.99,,2013-05-24 23:11:00,
2013-05-24 17:22:00,83.0,31.0,-100.00,NE,34,8.0,15.0,14,-99.99,,,-99.99,,2013-05-24 23:22:00,
2013-05-24 17:32:00,84.0,30.0,-100.00,NNE,20,7.0,12.0,13,-99.99,,,-99.99,,2013-05-24 23:32:00,
2013-05-24 17:42:00,69.0,27.0,-100.00,North,0,5.0,11.0,19,-99.99,,,-99.99,,2013-05-24 23:42:00,
2013-05-24 17:52:00,69.0,27.0,-100.00,North,0,5.0,11.0,19,-99.99,,,-99.99,,2013-05-24 23:52:00,
2013-05-24 18:01:00,70.0,27.0,-100.00,North,358,5.0,9.0,19,-99.99,,,-99.99,,2013-05-25 00:01:00,
2013-05-24 18:11:00,69.0,27.0,-100.00,North,11,6.0,12.0,19,-99.99,,,-99.99,,2013-05-25 00:11:00,
2013-05-24 18:21:00,70.0,27.0,-100.00,North,358,5.0,9.0,19,-99.99,,,-99.99,,2013-05-25 00:21:00,
2013-05-24 18:32:00,83.0,24.0,-100.00,SSW,199,4.0,12.0,10,-99.99,,,-99.99,,2013-05-25 00:32:00,
2013-05-24 18:41:00,83.0,24.0,-100.00,NE,34,3.0,8.0,10,-99.99,,,-99.99,,2013-05-25 00:41:00,
2013-05-24 18:51:00,83.0,24.0,-100.00,NE,34,3.0,8.0,10,-99.99,,,-99.99,,2013-05-25 00:51:00,
2013-05-24 19:01:00,82.0,32.0,-100.00,North,3,5.0,12.0,15,-99.99,,,-99.99,,2013-05-25 01:01:00,
2013-05-24 19:11:00,81.0,32.0,-100.00,NNE,20,7.0,14.0,16,-99.99,,,-99.99,,2013-05-25 01:11:00,
2013-05-24 19:22:00,81.0,32.0,-100.00,NNE,20,7.0,14.0,16,-99.99,,,-99.99,,2013-05-25 01:22:00,
2013-05-24 19:32:00,81.0,32.0,-100.00,NNE,23,8.0,16.0,16,-99.99,,,-99.99,,2013-05-25 01:32:00,
2013-05-24 19:42:00,79.0,33.0,-100.00,North,11,6.0,12.0,18,-99.99,,,-99.99,,2013-05-25 01:42:00,
2013-05-24 19:52:00,79.0,33.0,-100.00,North,11,6.0,12.0,18,-99.99,,,-99.99,,2013-05-25 01:52:00,
2013-05-24 20:01:00,78.0,33.0,-100.00,North,8,5.0,10.0,19,-99.99,,,-99.99,,2013-05-25 02:01:00,
2013-05-24 20:11:00,77.0,40.0,-100.00,NNE,12,7.0,12.0,27,-99.99,,,-99.99,,2013-05-25 02:11:00,
2013-05-24 20:21:00,77.0,40.0,-100.00,NNE,12,7.0,12.0,27,-99.99,,,-99.99,,2013-05-25 02:21:00,
2013-05-24 20:31:00,75.0,49.0,-100.00,NNE,26,7.0,14.0,40,-99.99,,,-99.99,,2013-05-25 02:31:00,
2013-05-24 20:42:00,74.0,51.0,-100.00,NE,35,7.0,12.0,44,-99.99,,,-99.99,,2013-05-25 02:42:00,
2013-05-24 20:51:00,74.0,51.0,-100.00,NE,35,7.0,12.0,44,-99.99,,,-99.99,,2013-05-25 02:51:00,
2013-05-24 21:01:00,72.0,51.0,-100.00,NNE,15,3.0,6.0,47,-99.99,,,-99.99,,2013-05-25 03:01:00,
2013-05-24 21:11:00,71.0,51.0,-100.00,WNW,303,4.0,7.0,51,-99.99,,,-99.99,,2013-05-25 03:11:00,
2013-05-24 21:21:00,71.0,51.0,-100.00,WNW,303,4.0,7.0,51,-99.99,,,-99.99,,2013-05-25 03:21:00,
2013-05-24 21:32:00,71.0,52.0,-100.00,NNE,21,3.0,6.0,52,-99.99,,,-99.99,,2013-05-25 03:32:00,
2013-05-24 21:43:00,70.0,52.0,-100.00,NNE,30,4.0,7.0,54,-99.99,,,-99.99,,2013-05-25 03:43:00,
2013-05-24 21:53:00,70.0,52.0,-100.00,NNE,30,4.0,7.0,54,-99.99,,,-99.99,,2013-05-25 03:53:00,
2013-05-24 22:02:00,69.0,52.0,-100.00,NNE,16,2.0,6.0,56,-99.99,,,-99.99,,2013-05-25 04:02:00,
2013-05-24 22:13:00,69.0,53.0,-100.00,NNE,21,2.0,3.0,57,-99.99,,,-99.99,,2013-05-25 04:13:00,
2013-05-24 22:23:00,69.0,53.0,-100.00,NNE,21,2.0,3.0,57,-99.99,,,-99.99,,2013-05-25 04:23:00,
2013-05-24 22:33:00,68.0,52.0,-100.00,NW,309,2.0,6.0,58,-99.99,,,-99.99,,2013-05-25 04:33:00,
2013-05-24 22:43:00,68.0,52.0,-100.00,NW,309,2.0,6.0,58,-99.99,,,-99.99,,2013-05-25 04:43:00,
2013-05-24 22:52:00,67.0,53.0,-100.00,NW,312,3.0,6.0,62,-99.99,,,-99.99,,2013-05-25 04:52:00,
2013-05-24 23:02:00,66.0,53.0,-100.00,NW,311,3.0,5.0,63,-99.99,,,-99.99,,2013-05-25 05:02:00,
2013-05-24 23:12:00,66.0,53.0,-100.00,NW,308,4.0,5.0,64,-99.99,,,-99.99,,2013-05-25 05:12:00,
2013-05-24 23:22:00,66.0,53.0,-100.00,NW,308,4.0,5.0,64,-99.99,,,-99.99,,2013-05-25 05:22:00,
2013-05-24 23:32:00,66.0,53.0,-100.00,NW,325,3.0,6.0,65,-99.99,,,-99.99,,2013-05-25 05:32:00,
2013-05-24 23:43:00,66.0,53.0,-100.00,NNW,332,3.0,6.0,65,-99.99,,,-99.99,,2013-05-25 05:43:00,
2013-05-24 23:52:00,66.0,53.0,-100.00,NNW,332,3.0,6.0,65,-99.99,,,-99.99,,2013-05-25 05:52:00,